Location: Cortada Guamacho
(10.5667°N, 67.0833°W)
Time: 04:20:28
(UTC+00:00)

SWIFT - Pass Details

Date: 05 July 2022
Orbit: 539 x 553 km, 20.6° (Epoch: 13 August)

Event Time Altitude Azimuth Distance (km) Brightness Sun altitude
Exits shadow 09:46:02 - 257° (WSW) 1,984 4.5 -6.5°
Reaches altitude 10° 09:46:42 10° 252° (WSW) 1,779 4.2 -6.4°
Maximum altitude 09:49:49 21° 202° (SSW) 1,245 3.7 -5.7°
Drops below altitude 10° 09:52:56 10° 153° (SSE) 1,780 5.0 -5.0°
Sets 09:55:39 0° 136° (SE) 2,672 6.1 -4.4°
